Location: *
(23.5860°S, 65.4036°W)
Time: 23:17:31
(UTC+00:00)

CSL-04 Rocket - Pass Details

Date: 25 August 2019
Orbit: 806 x 860 km, 99.0° (Epoch: 23 October)

Event Time Altitude Azimuth Distance (km) Brightness Sun altitude
Rises 22:55:15 0° 155° (SSE) 3,346 6.5 -11.4°
Reaches altitude 10° 22:57:47 10° 146° (SSE) 2,406 5.7 -12.0°
Maximum altitude 23:02:38 36° 80° (E) 1,261 4.1 -13.1°
Drops below altitude 10° 23:07:26 10° 14° (NNE) 2,383 6.0 -14.2°
Sets 23:09:56 0° 6° (N) 3,311 6.8 -14.7°
